Wind_Speed
23 23 22 22 22 22 21 20 18 17 18 18 16 15 15 13 11 10 10 9 9 9 9 9 8 8 8 9 10 10 8 8 9 9 9 10 10 11 10 10 9 9 8 8
22 22 22 23 22 22 21 20 18 17 17 18 17 16 15 13 11 10 10 10 10 9 9 9 9 9 9 10 10 10 8 8 9 10 11 12 10 10 11 10 10 10 9 9
22 21 22 22 23 22 22 20 18 17 17 18 17 16 15 13 12 11 11 11 10 9 10 10 10 9 9 9 9 9 8 9 10 11 12 11 9 10 10 10 11 10 10 10
22 22 23 23 23 22 21 19 20 19 18 18 18 17 15 14 12 12 12 11 11 10 11 12 11 10 9 9 9 9 9 10 11 11 11 11 11 10 10 11 12 12 12 11
22 22 23 23 22 21 20 21 20 20 20 20 19 18 15 14 14 13 12 13 12 12 13 13 12 11 10 10 10 9 10 11 11 11 11 12 12 11 11 12 12 12 12 11
22 22 22 21 21 21 21 22 22 21 21 21 19 19 15 14 14 14 14 14 14 14 13 13 13 11 11 11 11 11 11 12 13 13 13 12 12 13 12 12 12 12 12 12
23 23 22 22 21 21 22 23 23 23 23 22 20 19 15 14 15 16 17 16 14 13 13 13 13 12 12 12 12 13 12 13 13 14 14 13 12 12 13 13 13 13 13 13
23 23 23 22 22 22 22 23 24 24 24 22 21 20 16 15 15 16 17 16 15 14 13 13 13 13 13 13 14 15 15 14 13 14 13 13 13 13 14 14 14 14 13 13
24 24 24 24 24 24 24 24 24 25 25 25 24 22 18 16 16 16 16 15 15 15 15 15 15 15 15 15 15 15 16 16 15 14 13 13 13 14 15 15 15 14 14 14
25 24 25 25 26 26 25 25 26 26 26 26 25 22 20 18 17 17 17 17 15 15 16 16 16 16 16 16 16 16 16 16 16 15 14 14 14 15 16 16 16 17 16 15
26 25 25 26 27 27 26 26 26 27 27 27 26 23 19 18 19 19 18 17 17 17 16 16 16 16 16 16 17 16 16 16 16 16 16 16 16 17 17 17 18 18 16 16
26 26 26 26 27 27 27 27 27 27 27 27 27 23 20 19 19 20 19 19 18 18 18 17 17 17 17 17 18 17 16 16 17 17 17 18 18 18 18 18 17 17 17 16
26 26 26 27 27 28 28 28 28 28 28 28 27 24 21 20 20 19 19 19 19 19 18 17 17 17 17 17 18 17 18 18 18 19 19 19 19 18 17 17 17 17 17 17
26 26 27 26 26 27 28 29 28 29 29 29 27 25 23 22 21 21 20 20 19 19 18 18 18 18 18 18 19 20 19 20 20 21 20 19 19 18 18 18 18 17 18 19
26 26 26 26 26 27 28 29 29 29 29 29 27 26 25 24 24 23 23 22 21 21 20 20 20 20 20 20 21 21 21 21 21 21 21 20 20 19 18 18 19 18 19 19
25 26 26 26 26 27 28 29 30 30 30 29 27 26 25 25 25 25 24 23 23 23 23 23 22 23 23 23 23 23 23 23 22 22 22 22 21 20 19 19 19 19 20 20
26 26 26 27 27 28 29 28 29 30 30 29 28 27 27 27 27 26 25 25 24 24 24 25 25 25 25 25 24 24 23 23 23 23 22 23 23 22 21 21 20 20 21 21
26 27 27 27 27 28 27 27 28 28 29 29 29 27 26 27 27 26 25 25 25 25 25 25 25 26 26 25 25 25 24 24 23 23 23 23 24 23 22 22 21 21 22 22
28 27 28 27 28 28 27 27 28 28 29 28 28 28 27 26 26 26 25 25 25 25 25 25 26 27 27 26 25 25 25 24 24 23 23 23 23 23 23 23 23 23 23 23
28 28 28 28 28 28 27 27 28 28 28 29 29 28 27 27 26 26 26 26 26 26 25 26 26 26 27 27 26 25 25 25 24 24 23 24 24 24 25 24 23 23 23 23
27 28 28 28 28 29 28 28 28 28 27 28 28 28 27 27 27 27 27 27 27 27 27 27 27 26 26 26 26 26 26 25 24 24 23 24 24 24 25 25 24 23 23 23
26 27 27 28 28 29 28 28 28 28 27 27 27 27 28 27 27 28 28 28 28 27 27 28 27 27 27 26 26 25 25 25 24 24 24 24 25 25 24 24 24 23 22 23
26 27 27 28 27 27 27 27 27 28 28 28 27 27 28 27 27 28 28 28 27 26 26 27 27 27 27 27 27 27 26 26 25 25 25 25 25 25 25 25 24 23 23 23
25 25 27 27 27 27 27 27 27 27 27 27 27 26 27 27 27 28 28 28 27 26 25 26 27 28 28 28 27 28 27 27 26 26 25 24 24 24 24 25 25 25 25 25
25 25 26 26 26 26 27 27 27 27 26 26 26 26 26 26 25 25 26 26 26 26 26 26 26 27 27 27 26 26 26 27 26 26 25 25 25 25 24 24 24 25 25 26
24 25 26 25 25 26 26 25 25 26 26 26 26 26 25 25 25 25 25 26 26 26 26 26 26 26 27 27 26 26 26 26 25 25 24 25 26 26 25 25 25 25 26 26
Wind_Direction
232 232 230 233 234 235 238 239 238 238 243 248 248 252 258 260 262 265 271 278 287 296 302 304 311 318 321 325 330 333 337 328 326 324 320 314 309 311 313 314 323 321 322 320
231 230 231 233 234 235 237 238 237 236 241 247 248 249 252 252 253 259 266 272 282 286 291 297 300 303 310 316 320 323 321 326 324 322 320 313 301 308 305 303 309 313 313 314
231 230 232 233 234 236 237 236 236 238 244 251 253 249 248 250 254 259 265 272 275 282 285 289 292 292 299 306 312 316 316 322 322 320 321 314 306 312 313 308 306 310 311 311
228 227 230 232 234 236 235 234 235 237 242 248 251 252 249 251 257 264 265 269 274 280 287 288 285 284 290 295 300 304 304 316 318 316 318 319 314 309 308 308 306 307 308 307
230 229 230 233 233 235 235 233 234 238 243 247 250 253 252 254 258 263 262 267 273 278 284 282 280 279 284 288 291 296 303 309 310 313 316 315 316 312 307 306 304 303 305 302
230 229 229 228 229 232 230 230 234 239 244 249 252 257 258 259 260 259 261 265 271 276 279 273 273 277 284 286 286 292 301 303 304 308 313 309 308 306 306 306 301 298 299 300
228 228 227 225 228 230 231 232 235 238 244 250 254 258 263 263 262 261 261 261 266 272 271 270 273 278 283 285 286 292 293 292 295 300 303 304 302 302 302 303 296 297 296 296
229 226 227 227 229 232 234 236 239 243 248 252 253 257 263 265 266 266 266 263 262 264 265 267 273 276 281 284 287 286 287 284 292 298 302 302 298 300 300 298 294 294 293 291
231 228 229 230 230 232 234 237 241 245 249 252 253 257 259 263 267 271 268 267 264 261 263 265 268 275 278 282 285 283 285 282 289 296 299 299 298 297 297 295 294 292 292 287
232 230 229 230 231 231 234 237 241 245 248 252 256 260 263 264 265 264 267 266 265 266 266 267 271 274 276 280 284 288 288 284 286 292 294 294 295 296 295 293 291 291 292 289
231 232 230 231 233 233 234 237 240 245 249 253 258 262 265 266 267 267 266 266 268 268 268 270 272 272 274 279 283 284 288 285 287 291 291 291 291 294 295 293 290 289 290 290
233 234 232 231 233 234 236 239 241 244 249 254 260 263 264 264 266 269 267 266 269 270 268 270 272 273 275 280 285 283 283 285 288 288 287 288 288 292 293 293 291 287 286 288
234 235 235 231 232 234 235 237 240 245 250 254 258 261 261 262 264 267 268 266 267 268 268 269 270 273 276 278 282 283 284 284 288 287 286 286 287 290 292 294 291 287 287 289
236 238 237 236 235 237 238 239 242 246 251 256 258 260 260 260 263 265 267 268 265 267 267 269 271 273 278 279 280 278 281 284 287 287 285 283 284 287 291 292 290 288 289 289
237 239 239 238 236 236 239 242 245 248 252 256 258 260 262 262 263 265 266 265 267 268 268 269 272 274 277 280 279 278 279 280 283 283 281 281 282 285 287 290 290 288 289 291
236 240 241 241 241 240 242 243 246 249 252 255 259 261 263 264 265 266 266 267 268 267 268 270 273 274 275 277 278 278 278 278 279 282 279 281 283 284 286 287 288 288 289 290
237 238 241 242 244 246 245 245 247 250 252 255 260 263 264 265 264 266 266 266 268 269 269 269 272 274 275 275 277 278 278 277 280 281 281 282 283 282 282 282 283 282 285 288
239 241 243 243 244 246 247 248 249 252 255 257 259 262 264 265 262 263 264 265 266 267 268 270 273 274 274 275 278 278 276 277 279 280 284 283 280 278 280 279 279 280 282 284
242 244 246 248 247 248 248 249 251 254 254 256 259 261 263 264 262 261 263 265 267 268 269 271 273 273 272 274 278 278 277 278 278 280 282 284 281 279 279 277 277 278 279 281
244 245 248 250 251 252 250 251 254 257 257 257 259 262 263 263 263 262 262 262 266 267 268 269 273 274 273 272 274 276 276 277 277 278 280 281 279 278 278 277 276 276 277 279
245 244 246 249 252 254 254 254 255 256 258 259 260 262 262 263 265 264 262 262 263 265 266 268 271 272 271 270 272 276 275 275 275 278 279 281 280 280 279 277 275 274 278 278
245 246 247 249 252 254 256 256 256 257 259 260 261 261 262 263 263 263 264 263 263 264 265 266 269 270 270 271 273 275 274 273 274 276 278 279 281 280 279 277 274 275 278 279
247 247 247 249 251 253 255 256 257 258 260 261 263 262 262 263 263 264 264 264 262 263 264 264 265 267 269 270 272 272 274 272 274 275 277 279 280 278 276 276 275 276 277 278
248 248 249 250 251 252 253 254 257 259 260 261 263 263 263 264 265 265 264 263 262 262 264 265 266 266 267 268 270 271 273 272 273 276 275 276 278 278 278 278 278 277 276 276
248 249 249 250 252 252 252 254 256 258 260 261 262 264 264 264 263 264 263 261 260 260 262 266 268 266 267 269 271 272 273 272 272 274 272 272 275 277 277 277 278 277 277 279
250 250 249 249 251 252 252 253 256 257 259 261 262 263 265 265 263 263 262 261 261 262 264 266 268 268 270 270 271 272 273 272 274 275 274 274 275 276 276 277 278 278 278 279
Height
5852 5856 5859 5862 5864 5866 5868 5870 5872 5874 5874 5875 5876 5877 5879 5879 5880 5880 5880 5880 5881 5880 5880 5880 5879 5879 5878 5877 5876 5875 5874 5873 5871 5870 5869 5869 5867 5866 5865 5864 5863 5862 5861 5860
5850 5853 5856 5857 5859 5862 5864 5866 5869 5871 5871 5872 5873 5874 5875 5876 5877 5878 5878 5878 5878 5878 5878 5877 5877 5877 5876 5875 5874 5873 5872 5871 5870 5869 5867 5866 5865 5864 5863 5862 5862 5860 5859 5858
5846 5850 5851 5853 5856 5858 5860 5863 5865 5867 5868 5869 5870 5872 5873 5873 5874 5875 5876 5876 5876 5876 5875 5875 5875 5874 5874 5874 5872 5871 5870 5869 5869 5867 5866 5863 5862 5862 5861 5861 5860 5859 5857 5857
5841 5845 5847 5849 5852 5855 5857 5860 5862 5863 5864 5865 5867 5868 5870 5871 5872 5873 5873 5873 5874 5874 5873 5873 5872 5872 5872 5871 5870 5869 5868 5867 5866 5865 5864 5862 5861 5860 5859 5859 5858 5857 5855 5854
5838 5841 5843 5846 5849 5851 5854 5856 5858 5859 5860 5862 5863 5865 5868 5868 5869 5870 5870 5871 5871 5871 5870 5870 5870 5869 5869 5868 5867 5867 5866 5865 5864 5862 5861 5861 5859 5858 5857 5856 5855 5854 5853 5852
5834 5836 5839 5842 5845 5847 5850 5852 5854 5855 5857 5859 5861 5862 5864 5865 5866 5866 5867 5868 5868 5867 5867 5867 5867 5867 5867 5866 5865 5865 5864 5863 5862 5860 5859 5858 5857 5856 5855 5854 5853 5852 5850 5850
5830 5832 5835 5838 5840 5843 5846 5848 5850 5851 5853 5855 5858 5858 5861 5862 5862 5862 5863 5864 5864 5864 5864 5864 5864 5864 5864 5863 5862 5862 5861 5860 5859 5858 5857 5855 5854 5853 5852 5851 5850 5848 5847 5846
5826 5829 5832 5834 5837 5839 5842 5845 5847 5849 5850 5852 5854 5854 5859 5858 5858 5858 5859 5859 5860 5860 5861 5860 5860 5861 5860 5860 5859 5858 5857 5856 5855 5854 5853 5852 5851 5850 5849 5848 5846 5845 5844 5843
5821 5825 5828 5830 5833 5835 5837 5840 5843 5845 5846 5847 5849 5851 5854 5854 5854 5854 5855 5855 5856 5856 5857 5857 5856 5856 5856 5856 5855 5854 5853 5852 5851 5851 5850 5849 5848 5847 5846 5844 5843 5842 5841 5840
5816 5820 5823 5825 5827 5830 5833 5836 5838 5839 5841 5842 5844 5846 5849 5850 5850 5851 5851 5851 5851 5852 5852 5853 5852 5852 5852 5852 5851 5850 5849 5848 5848 5847 5846 5845 5844 5843 5842 5841 5840 5839 5838 5837
5811 5814 5817 5820 5822 5825 5828 5831 5832 5834 5836 5838 5839 5844 5844 5845 5846 5846 5847 5847 5847 5847 5848 5848 5848 5848 5848 5847 5846 5845 5845 5844 5843 5843 5842 5841 5840 5839 5838 5837 5836 5835 5834 5833
5805 5808 5811 5815 5818 5820 5823 5825 5828 5830 5831 5833 5834 5840 5839 5840 5841 5841 5842 5842 5842 5843 5843 5843 5843 5843 5843 5842 5841 5841 5840 5840 5839 5838 5838 5836 5835 5834 5833 5832 5831 5830 5830 5829
5799 5803 5806 5809 5813 5815 5816 5819 5822 5824 5826 5827 5829 5834 5834 5835 5835 5836 5836 5837 5837 5838 5838 5838 5838 5838 5838 5838 5837 5836 5836 5835 5834 5833 5833 5831 5830 5829 5828 5827 5826 5826 5825 5824
5794 5797 5801 5804 5807 5809 5811 5814 5816 5818 5819 5821 5824 5826 5828 5829 5830 5830 5831 5832 5832 5832 5833 5833 5833 5833 5833 5832 5832 5831 5831 5830 5829 5828 5827 5826 5825 5824 5823 5823 5822 5820 5819 5819
5788 5791 5794 5797 5800 5803 5805 5808 5810 5812 5814 5816 5818 5820 5822 5823 5823 5824 5825 5826 5827 5827 5827 5827 5827 5827 5827 5827 5826 5826 5825 5824 5824 5823 5821 5821 5820 5819 5818 5817 5816 5815 5814 5813
5782 5786 5788 5791 5794 5797 5799 5801 5804 5806 5808 5809 5811 5814 5815 5816 5817 5818 5819 5819 5820 5821 5821 5821 5821 5821 5821 5820 5820 5820 5819 5818 5818 5817 5816 5815 5814 5813 5813 5812 5811 5810 5809 5808
5776 5779 5782 5785 5788 5790 5792 5796 5798 5799 5801 5803 5805 5808 5808 5809 5810 5811 5812 5813 5813 5814 5814 5814 5815 5815 5814 5814 5813 5813 5813 5812 5811 5811 5810 5809 5808 5808 5807 5806 5805 5805 5804 5803
5771 5773 5776 5779 5782 5783 5788 5789 5791 5793 5794 5796 5798 5800 5801 5801 5803 5803 5804 5805 5806 5806 5807 5807 5807 5807 5807 5807 5807 5806 5806 5805 5805 5804 5803 5802 5801 5801 5800 5800 5799 5799 5798 5797
5765 5767 5769 5772 5774 5777 5780 5782 5784 5786 5787 5789 5791 5792 5794 5794 5795 5796 5797 5798 5798 5799 5799 5800 5800 5800 5800 5800 5800 5800 5800 5799 5799 5798 5797 5796 5795 5794 5793 5793 5792 5792 5791 5790
5758 5761 5763 5765 5767 5769 5774 5775 5777 5780 5781 5783 5784 5785 5786 5787 5788 5790 5790 5791 5791 5791 5792 5792 5792 5792 5792 5793 5793 5793 5793 5793 5792 5791 5790 5789 5788 5787 5787 5786 5786 5785 5785 5784
5751 5753 5756 5758 5760 5762 5766 5767 5770 5773 5775 5775 5776 5777 5779 5780 5781 5782 5783 5783 5784 5784 5784 5784 5784 5784 5785 5785 5786 5786 5786 5786 5785 5784 5783 5782 5781 5781 5780 5779 5779 5779 5778 5777
5745 5747 5749 5751 5753 5757 5758 5760 5763 5764 5766 5767 5768 5770 5771 5772 5773 5774 5774 5775 5776 5776 5776 5776 5777 5777 5778 5778 5779 5779 5779 5779 5778 5778 5776 5775 5775 5774 5773 5773 5772 5772 5771 5771
5738 5740 5742 5744 5748 5749 5750 5752 5754 5756 5758 5759 5760 5762 5764 5765 5765 5766 5766 5767 5768 5768 5769 5769 5770 5770 5770 5771 5771 5771 5771 5771 5771 5770 5769 5768 5768 5767 5767 5766 5765 5765 5764 5764
5731 5733 5734 5737 5739 5741 5743 5745 5746 5748 5750 5751 5753 5754 5756 5757 5757 5758 5758 5759 5760 5761 5762 5762 5762 5763 5763 5763 5763 5764 5763 5763 5763 5763 5762 5761 5761 5760 5760 5759 5758 5758 5757 5756
5725 5726 5728 5730 5732 5734 5736 5737 5739 5741 5743 5744 5745 5746 5748 5749 5750 5750 5751 5751 5752 5753 5754 5755 5755 5755 5755 5756 5756 5756 5755 5755 5755 5755 5754 5754 5754 5753 5752 5751 5750 5750 5749 5748
5719 5720 5722 5724 5726 5727 5729 5731 5733 5734 5735 5737 5738 5739 5740 5741 5742 5743 5743 5744 5745 5746 5746 5747 5747 5748 5748 5748 5748 5748 5748 5747 5747 5747 5747 5746 5746 5746 5745 5744 5743 5742 5742 5741